Zurück zum Katalog

FENGYUN 1C DEB

LostSSO
NORAD 30955·DEBRIS·🇨🇳 China

Gestartet May 10, 1999 von Taiyuan Satellite Launch Center

Loading…

Nächste Überflüge (nächste 24 Stunden)

TLE

VeraltetSource: Space-Track

Epoche: Sep 12, 2022, 10:26 UTC

1 30955U 99025BAV 22255.43495679  .00002745  00000-0  14499-2 0  9997
2 30955  98.6925 124.6845 0049640 274.7218  84.8287 14.14006339796221

Verfolge FENGYUN 1C DEB in Echtzeit mit AllMySat

Download on the App Store